Showing default

PELICAN-9 3010, 69019

Orbit data source: Space-Track

PELICAN-9 3010, 69019 is a payload satellite owned by Planet (US) in SSO that was launched on Sun, 03 May 2026 UTC via an FALCON 9 launch vehicle from the Air Force Western Test Range (AFWTR). Payload-class satellites include a variety of spacecraft equipped with specific instruments for various scientific and technological missions. These include communications satellites like Starlink; space stations such as the ISS; scientific satellites like the Hubble; Earth observation satellites from companies like Planet Labs, Umbra, and HawkEye 360; GPS; miniature CubeSats for education and research; and military/defense satellites.

Loading next visibility...
Identifier
69019, 2026-100AR
Orbit
SSO
Country
Flag of USUS
Related business
Manufacturer
Planet
Mission
Operational spacecraft
Bus & Motor
PELICAN, XE AOCS
Mass
160 kg wet, 146 kg dry
Launch date (UTC)
2026-05-03 (2 months ago)
Launch vehicle
FALCON 9
Launch site
Air Force Western Test Range (AFWTR)
Object type
Payload
Rocket body
Debris
Shape & HBR
Unknown shape, 14.5 m
Radar Cross Section
Large (>1 m²)

Expand to show TLE details & history
Last TLE update: 16 hours ago

TLE from 16 hours ago
0 PELICAN-9 3010
1 69019U 26100AR  26175.19275563 -.00000054  00000-0  63393-6 0  9993
2 69019  97.3927  72.8636 0005407  29.8127 330.3416 15.20936520  7876
Epoch: 2026-06-24T04:37Z
TLE epoch observation values (Epoch: 2026-06-24T04:37:34.086Z)
Latitude
Longitude
91.11808°
Altitude
502.873 km
Speed
7.615 km/s
True Right ascension
04h 51m 27s
True Declination
0° 00' 00"
Sunlit
Object was in daylight at epoch
Visualization orbit readout
Latitude
Unknown
Longitude
Unknown
Altitude
Unknown
Speed
Unknown
Apparent Right ascension
Unknown
Apparent Declination
Unknown
Sunlit
N/A
Visualization observer readout
Local Sidereal Time
07:36:39
Azimuth
Unknown
Elevation
Unknown
Doppler factor
Unknown
Orbital elements
Apogee altitude
503.697 km
Perigee altitude
496.259 km
Semi-major axis
6,878.115 km
Eccentricity
0.00054
Inclination
97.3927°
RAAN
72.8636°
Arg. of periapsis
29.8127°
True anomaly
330.31092°
Mean anomaly
330.3416°
Eccentric anomaly
330.32626°
Mean motion
3.80486 °/min
Orbital period
94.62 mins
BSTAR
6.3393e-7
Loading maneuver chart data...
Computing Atmospheric mass density...
Loading historical data...
Loading historical data...
Loading historical data...
Loading historical data...
Loading historical data...
Loading historical data...
Loading historical data...

Documentation

Showing up to 5 results
|